TimeCST,TemperatureF,Dew PointF,Humidity,Sea Level PressureIn,VisibilityMPH,Wind Direction,Wind SpeedMPH,Gust SpeedMPH,PrecipitationIn,Events,Conditions,WindDirDegrees,DateUTC
12:56 AM,66.9,64.9,93,29.92,8.0,SE,5.8,-,0.00,Rain,Light Rain,140,2013-01-01 06:56:00
1:56 AM,66.9,66.0,97,29.91,6.0,SE,8.1,-,0.03,Rain,Light Rain,130,2013-01-01 07:56:00
2:56 AM,68.0,66.0,93,29.86,8.0,North,-9999.0,-,0.01,,Mostly Cloudy,0,2013-01-01 08:56:00
3:56 AM,68.0,66.0,93,29.87,8.0,South,12.7,-,0.00,Rain,Light Rain,170,2013-01-01 09:56:00
4:56 AM,66.9,66.0,97,29.89,6.0,North,-9999.0,-,0.01,Rain,Light Rain,0,2013-01-01 10:56:00
5:12 AM,66.2,66.2,100,29.89,6.0,North,-9999.0,-,0.00,Rain,Light Rain,0,2013-01-01 11:12:00
5:56 AM,66.9,66.9,100,29.91,6.0,North,-9999.0,-,0.00,Rain,Light Rain,0,2013-01-01 11:56:00
6:17 AM,66.2,66.2,100,29.93,6.0,NW,13.8,-,0.00,,Overcast,310,2013-01-01 12:17:00
6:56 AM,64.9,64.0,97,29.93,7.0,NW,8.1,-,0.00,Rain,Light Rain,310,2013-01-01 12:56:00
7:12 AM,64.4,64.4,100,29.95,7.0,NW,9.2,-,0.00,Rain,Light Rain,320,2013-01-01 13:12:00
7:53 AM,64.4,64.4,100,29.96,6.0,WNW,6.9,-,0.00,Rain,Light Rain,300,2013-01-01 13:53:00
7:56 AM,64.9,64.0,97,29.96,6.0,WNW,5.8,-,0.00,Rain,Light Rain,300,2013-01-01 13:56:00
8:05 AM,64.4,64.4,100,29.98,4.0,WNW,8.1,-,0.01,Rain,Light Rain,290,2013-01-01 14:05:00
8:16 AM,64.4,64.4,100,29.99,4.0,WNW,8.1,-,0.01,Rain,Light Rain,290,2013-01-01 14:16:00
8:33 AM,64.4,64.4,100,30.00,3.0,WNW,10.4,-,0.01,Rain,Light Rain,300,2013-01-01 14:33:00
8:56 AM,63.0,62.1,97,30.01,3.0,NNW,19.6,25.3,0.01,Rain,Light Rain,330,2013-01-01 14:56:00
9:11 AM,62.6,60.8,94,30.03,6.0,NNW,20.7,26.5,0.00,,Overcast,340,2013-01-01 15:11:00
9:30 AM,60.8,59.0,94,30.04,9.0,North,18.4,25.3,0.00,,Overcast,350,2013-01-01 15:30:00
9:56 AM,61.0,59.0,93,30.05,8.0,North,15.0,-,0.00,,Overcast,360,2013-01-01 15:56:00
10:08 AM,59.0,57.2,94,30.07,10.0,North,21.9,28.8,N/A,,Overcast,10,2013-01-01 16:08:00
10:27 AM,59.0,55.4,88,30.08,10.0,North,20.7,26.5,N/A,,Overcast,360,2013-01-01 16:27:00
10:56 AM,59.0,55.0,87,30.08,10.0,North,17.3,26.5,N/A,,Overcast,360,2013-01-01 16:56:00
11:33 AM,59.0,53.6,82,30.09,10.0,North,13.8,-,N/A,,Overcast,360,2013-01-01 17:33:00
11:56 AM,59.0,54.0,83,30.09,10.0,North,11.5,-,N/A,,Overcast,360,2013-01-01 17:56:00
12:05 PM,57.2,53.6,88,30.10,10.0,North,13.8,20.7,N/A,,Overcast,360,2013-01-01 18:05:00
12:56 PM,59.0,53.1,81,30.07,10.0,North,13.8,-,N/A,,Overcast,350,2013-01-01 18:56:00
1:56 PM,59.0,52.0,78,30.06,10.0,North,17.3,24.2,N/A,,Mostly Cloudy,350,2013-01-01 19:56:00
2:56 PM,59.0,50.0,72,30.07,10.0,North,16.1,25.3,N/A,,Overcast,10,2013-01-01 20:56:00
3:56 PM,57.9,48.9,72,30.09,10.0,North,16.1,21.9,N/A,,Overcast,350,2013-01-01 21:56:00
4:56 PM,57.9,48.9,72,30.10,10.0,North,9.2,17.3,N/A,,Mostly Cloudy,10,2013-01-01 22:56:00
5:56 PM,57.0,48.9,74,30.11,10.0,North,10.4,-,N/A,,Overcast,350,2013-01-01 23:56:00
6:56 PM,57.0,48.9,74,30.13,10.0,North,9.2,-,N/A,,Mostly Cloudy,10,2013-01-02 00:56:00
7:56 PM,55.9,48.0,75,30.15,10.0,North,10.4,-,N/A,,Scattered Clouds,360,2013-01-02 01:56:00
8:56 PM,54.0,46.9,77,30.17,10.0,North,9.2,-,N/A,,Partly Cloudy,360,2013-01-02 02:56:00
9:56 PM,54.0,46.0,75,30.17,10.0,North,9.2,-,N/A,,Clear,360,2013-01-02 03:56:00
10:56 PM,52.0,45.0,77,30.17,9.0,North,12.7,18.4,N/A,,Mostly Cloudy,360,2013-01-02 04:56:00
11:56 PM,50.0,42.1,74,30.17,10.0,North,12.7,-,N/A,,Clear,360,2013-01-02 05:56:00